Wind_Speed
35 36 38 40 42 44 46 48 49 50 52 53 54 54 55 56 57 59 62 64 65 64 61 59 55 53 52 51 50 49 47 46 43 41 39 36 33 30 27 24 22 20 19
37 38 41 44 46 48 50 52 53 54 55 56 57 58 58 59 60 61 63 65 67 69 68 66 63 59 56 54 54 52 50 49 47 44 42 39 36 33 30 27 25 22 21
40 42 45 48 50 52 54 56 56 56 56 57 58 59 60 61 62 63 64 66 69 70 72 72 69 66 62 58 56 55 53 51 50 48 45 42 38 35 32 30 27 25 23
42 45 47 50 52 54 56 56 56 55 55 56 57 58 60 62 63 64 65 67 69 71 73 74 75 71 67 64 59 57 56 54 52 50 48 45 41 38 35 32 30 27 25
44 47 49 51 54 55 56 56 55 55 54 54 55 56 57 59 61 62 63 65 67 70 73 75 77 77 73 68 65 61 59 57 54 52 50 48 45 41 38 35 32 30 27
45 48 50 52 54 55 55 55 54 53 52 51 50 51 53 54 56 57 58 61 62 64 69 73 77 78 78 73 69 66 62 59 55 54 52 50 47 45 42 38 35 32 29
47 49 52 53 54 54 54 53 51 49 48 46 45 46 47 49 52 53 54 55 56 57 60 65 72 76 79 78 74 69 67 62 59 56 53 52 50 47 45 41 38 35 31
48 50 52 53 53 53 52 50 48 46 43 40 38 39 41 43 45 48 49 49 49 49 51 55 61 69 74 77 76 73 69 64 61 59 55 52 51 49 47 45 41 37 33
49 51 52 53 52 52 50 47 44 40 36 34 33 33 34 37 40 43 44 44 44 44 44 46 50 56 65 71 73 73 72 68 63 59 59 56 54 51 49 46 42 38 34
49 51 52 52 52 50 47 44 40 35 31 27 26 26 28 31 34 37 39 39 40 40 40 40 42 47 54 62 68 71 72 69 66 62 59 58 55 53 49 46 43 39 35
49 50 51 51 51 48 45 41 36 32 27 23 20 19 22 25 28 31 34 36 37 36 36 36 36 40 46 52 59 64 67 68 68 65 59 55 54 53 50 46 43 39 36
48 49 49 49 49 46 43 39 34 30 24 19 15 14 17 21 24 27 29 33 35 34 33 34 34 35 38 44 50 56 63 65 66 65 61 55 52 51 49 46 43 40 37
47 48 48 47 47 44 42 37 32 28 22 16 12 11 12 16 20 23 26 30 32 32 31 32 32 32 33 37 43 49 54 60 63 63 61 56 51 47 45 45 44 41 38
46 46 46 45 44 43 40 36 31 26 21 15 9 7 10 14 18 20 23 27 29 29 29 29 29 29 30 31 36 42 47 52 56 58 58 56 53 50 46 44 43 41 39
44 45 44 44 43 41 38 34 31 26 21 14 8 3 8 13 18 20 22 25 27 28 27 27 27 27 28 29 31 36 42 47 50 52 54 54 51 49 46 44 42 41 40
42 43 43 42 41 39 36 33 29 26 21 16 9 1 5 12 16 19 21 23 25 26 26 25 25 25 26 28 29 32 37 42 45 48 52 51 49 48 47 45 42 40 40
41 41 41 41 39 37 34 31 28 25 21 16 10 5 4 9 13 17 19 22 23 24 25 25 24 23 24 26 27 30 34 39 42 48 51 50 49 49 47 45 44 41 40
39 39 39 39 37 35 32 29 27 23 19 16 12 7 4 7 10 14 17 19 22 23 24 24 24 24 24 24 26 28 32 38 42 48 51 50 49 48 48 46 44 41 39
37 37 37 37 36 34 31 28 25 22 18 14 11 8 6 5 8 10 14 17 19 21 22 23 23 23 23 23 25 27 31 37 42 47 50 50 48 49 48 46 44 42 40
35 36 35 35 35 33 31 28 25 21 18 14 10 8 6 6 7 9 12 14 16 17 19 20 21 21 22 22 23 26 32 36 42 47 50 48 47 48 46 45 43 41 39
33 34 33 33 33 32 30 27 24 21 17 14 11 9 7 6 7 9 10 12 13 15 16 17 17 19 20 21 24 28 32 36 42 47 48 47 48 47 44 43 41 39 38
31 31 31 31 31 31 29 26 24 20 16 13 11 9 7 6 7 8 10 11 12 13 14 15 16 17 19 20 24 28 33 38 43 46 46 47 46 44 42 41 39 38 37
28 29 29 28 29 29 28 26 24 21 16 14 11 9 8 7 7 8 10 11 11 11 12 13 14 16 18 21 25 29 34 37 41 44 45 45 43 41 39 38 37 36 34
26 26 26 26 26 26 26 25 24 22 18 16 14 11 10 8 8 8 9 11 11 11 11 12 14 16 19 22 26 30 34 36 39 41 41 40 39 37 36 34 33 32 30
23 23 23 24 24 24 24 24 23 22 20 17 16 15 14 13 12 12 11 11 11 12 13 15 18 20 23 26 28 31 32 35 38 39 37 35 33 32 31 30 29 28 28
20 20 20 21 21 21 21 21 22 21 20 18 17 16 16 15 15 15 14 14 15 16 18 21 23 24 25 27 28 29 30 32 33 34 33 31 30 28 27 26 26 26 26
Wind_Direction
300 298 297 297 296 295 292 289 286 282 278 273 269 265 261 258 255 251 247 244 242 241 241 240 238 236 233 231 230 229 229 229 229 228 228 228 231 235 240 247 253 260 270
302 301 301 300 300 298 296 293 289 284 279 275 270 265 261 258 254 252 248 244 242 240 239 238 238 237 234 232 230 230 229 229 229 230 229 229 230 232 237 243 249 257 265
305 305 304 304 303 302 299 296 292 287 282 276 272 266 262 257 254 251 248 245 242 240 238 237 237 236 235 232 230 229 229 229 229 230 230 230 230 231 235 240 246 253 260
309 309 309 308 307 305 302 299 295 290 285 279 273 268 263 258 254 250 247 245 242 240 238 236 236 236 235 233 230 228 228 228 228 229 230 230 230 230 233 237 242 249 255
314 314 313 313 311 309 306 302 298 293 288 281 274 268 263 257 253 250 246 244 242 240 238 236 235 235 234 234 232 229 227 227 227 228 229 230 230 230 232 234 239 245 251
318 318 317 316 315 312 308 305 301 296 291 284 276 268 262 256 251 248 245 242 241 239 237 235 234 234 233 232 232 231 229 227 226 227 227 228 228 229 230 232 236 241 246
322 321 321 320 318 315 312 309 304 299 293 286 277 268 260 254 249 245 241 239 238 237 236 235 234 232 232 232 231 230 229 228 227 227 226 227 227 228 229 230 232 236 242
326 325 325 324 322 321 318 314 309 304 297 288 278 269 259 251 245 241 238 235 233 233 233 232 232 232 231 231 230 229 229 230 228 227 227 226 225 225 226 228 229 233 238
329 329 329 328 327 326 323 320 316 310 301 290 279 268 256 247 241 237 233 229 228 228 229 229 229 229 230 229 229 229 229 230 230 230 228 227 225 224 224 225 226 230 234
332 332 333 333 332 331 329 327 323 318 309 295 283 268 253 241 236 233 227 223 223 223 224 225 225 225 226 227 227 228 228 229 231 231 229 226 224 223 222 221 222 225 229
335 336 336 336 336 335 334 332 329 325 318 304 286 266 249 238 232 228 221 217 216 217 220 220 221 222 223 224 225 226 226 227 228 230 229 226 225 222 221 220 220 222 226
338 339 339 339 340 340 339 338 335 332 326 314 295 266 245 234 227 221 214 211 212 212 214 216 217 218 220 220 221 222 224 225 226 227 227 225 223 221 220 221 220 221 224
341 342 343 343 344 345 345 344 341 339 333 324 301 268 240 226 218 212 209 207 208 209 211 213 214 216 217 217 218 219 220 223 224 225 226 226 223 221 219 218 219 220 223
344 345 346 348 349 349 350 350 349 345 342 334 313 262 227 214 208 205 205 205 205 207 209 212 213 215 216 216 217 218 217 218 219 221 223 225 225 222 219 218 218 220 223
347 348 350 351 352 353 355 356 356 355 353 350 338 270 211 202 200 199 200 201 202 204 206 210 212 214 216 217 216 217 215 214 214 216 218 220 221 219 217 216 216 218 221
349 351 352 354 355 357 359 0 1 2 3 4 8 13 190 191 194 197 198 197 198 200 203 206 207 210 214 214 214 214 213 209 207 208 209 210 213 213 213 213 215 217 218
350 352 354 356 358 0 1 3 4 5 9 14 22 50 138 173 183 188 191 195 197 198 201 203 206 209 211 210 211 210 208 204 203 202 201 202 205 208 210 211 213 215 217
351 353 355 358 0 3 4 5 6 9 12 18 29 45 93 151 171 180 186 191 195 199 202 204 207 209 210 211 211 210 208 203 201 199 197 197 199 201 204 207 210 213 215
353 354 357 0 3 5 7 8 10 12 15 19 31 47 72 124 158 172 180 186 193 198 202 205 209 212 213 213 212 211 206 201 198 195 193 192 195 197 200 203 208 210 213
353 356 358 2 5 8 10 13 15 17 20 26 36 49 72 107 138 159 171 180 189 195 201 206 210 215 217 216 213 207 199 195 193 192 190 190 192 194 197 202 205 208 212
353 356 359 3 7 9 11 14 17 20 25 32 42 54 72 103 130 149 163 174 183 190 196 203 210 215 216 212 207 202 195 189 188 186 187 189 190 192 196 201 205 208 212
353 356 0 4 8 11 13 15 18 21 27 34 43 52 69 94 128 152 162 169 178 187 196 201 204 204 203 199 195 192 186 182 180 181 182 183 186 192 196 200 204 207 211
353 357 1 5 8 12 16 20 23 26 32 38 43 50 66 89 117 141 160 169 175 180 186 189 190 190 187 185 184 181 176 175 177 179 179 181 186 191 195 199 203 206 210
352 356 2 6 9 13 18 22 26 31 38 45 51 56 65 81 105 127 144 156 162 164 169 171 169 167 168 169 171 170 169 170 174 176 178 181 187 191 194 198 203 207 211
352 356 2 7 11 15 19 25 30 35 42 51 57 62 70 82 97 111 122 129 135 140 141 142 143 146 149 153 157 159 162 166 169 174 178 183 187 191 196 200 203 208 213
349 354 1 6 12 17 21 27 34 38 45 53 61 67 75 84 92 99 108 113 115 118 125 130 133 136 142 148 151 155 159 163 166 170 176 182 187 192 197 201 206 210 214
Height
5724 5720 5715 5710 5705 5700 5695 5691 5687 5684 5680 5678 5676 5676 5676 5677 5679 5682 5687 5692 5698 5704 5709 5715 5721 5727 5733 5739 5745 5751 5757 5763 5768 5774 5779 5784 5789 5793 5796 5799 5802 5804 5805
5714 5709 5703 5697 5691 5685 5678 5673 5668 5664 5660 5657 5656 5655 5656 5657 5659 5662 5667 5672 5679 5686 5692 5699 5705 5712 5718 5725 5732 5739 5745 5752 5758 5764 5770 5776 5781 5785 5789 5792 5795 5797 5799
5703 5696 5690 5683 5675 5668 5660 5653 5647 5641 5637 5634 5632 5632 5633 5635 5637 5641 5645 5651 5658 5665 5673 5681 5688 5695 5703 5710 5717 5725 5733 5740 5747 5753 5760 5766 5772 5777 5781 5785 5788 5791 5793
5690 5683 5675 5667 5659 5650 5642 5633 5625 5619 5614 5610 5608 5608 5609 5611 5614 5618 5623 5629 5636 5644 5652 5661 5670 5678 5686 5694 5702 5711 5719 5727 5734 5742 5749 5756 5762 5767 5773 5777 5781 5784 5786
5678 5670 5661 5652 5642 5632 5623 5613 5605 5597 5591 5587 5584 5583 5584 5586 5591 5595 5601 5607 5614 5622 5631 5641 5650 5659 5669 5678 5687 5696 5704 5712 5721 5729 5737 5745 5752 5758 5763 5768 5773 5776 5779
5666 5657 5647 5637 5626 5615 5604 5593 5584 5576 5569 5564 5561 5560 5561 5564 5569 5574 5580 5586 5594 5602 5611 5621 5630 5640 5651 5662 5672 5681 5690 5698 5708 5717 5725 5733 5741 5748 5754 5759 5765 5769 5772
5654 5644 5634 5622 5611 5599 5587 5575 5565 5556 5549 5543 5540 5539 5540 5543 5548 5554 5561 5568 5577 5585 5593 5602 5611 5621 5633 5645 5656 5666 5675 5684 5695 5704 5712 5721 5729 5737 5744 5750 5755 5760 5764
5643 5632 5620 5608 5596 5583 5570 5558 5548 5538 5531 5525 5522 5521 5522 5526 5530 5537 5544 5553 5562 5570 5578 5586 5594 5604 5615 5627 5639 5651 5660 5670 5681 5692 5701 5710 5717 5725 5732 5739 5746 5752 5756
5632 5620 5608 5595 5582 5569 5556 5544 5533 5523 5515 5510 5507 5506 5507 5511 5516 5522 5531 5540 5550 5558 5566 5573 5581 5589 5599 5611 5625 5637 5648 5657 5667 5678 5688 5697 5705 5714 5722 5730 5737 5743 5748
5622 5610 5597 5584 5571 5558 5545 5533 5521 5512 5504 5498 5495 5494 5496 5500 5505 5511 5520 5530 5539 5548 5556 5563 5570 5578 5585 5596 5608 5620 5633 5644 5656 5666 5676 5685 5694 5703 5711 5720 5727 5734 5740
5613 5601 5588 5575 5562 5549 5536 5524 5513 5504 5497 5491 5487 5486 5488 5492 5497 5503 5512 5521 5530 5539 5547 5554 5561 5568 5575 5585 5595 5607 5618 5630 5643 5654 5664 5674 5684 5693 5701 5710 5718 5726 5732
5606 5594 5581 5568 5555 5542 5530 5518 5508 5499 5492 5486 5483 5482 5484 5487 5491 5498 5506 5514 5523 5531 5539 5547 5554 5560 5567 5575 5585 5595 5606 5618 5630 5642 5653 5664 5674 5684 5693 5701 5709 5717 5723
5600 5588 5575 5562 5549 5537 5525 5514 5505 5496 5489 5484 5481 5480 5481 5484 5488 5494 5501 5509 5517 5525 5533 5540 5547 5554 5561 5568 5576 5584 5595 5607 5619 5630 5643 5654 5665 5675 5683 5692 5700 5708 5715
5595 5583 5571 5559 5546 5534 5523 5512 5503 5495 5488 5483 5479 5478 5480 5482 5487 5492 5498 5505 5513 5521 5528 5535 5542 5549 5555 5562 5568 5576 5586 5597 5608 5620 5632 5644 5654 5665 5675 5684 5692 5700 5707
5591 5580 5568 5556 5544 5533 5522 5512 5503 5495 5488 5483 5479 5478 5479 5482 5486 5491 5497 5503 5510 5518 5525 5532 5538 5544 5551 5556 5562 5570 5578 5587 5598 5609 5622 5634 5646 5657 5667 5676 5685 5692 5700
5588 5577 5566 5555 5544 5533 5522 5513 5505 5497 5490 5485 5481 5480 5480 5483 5487 5491 5497 5503 5509 5516 5523 5529 5535 5541 5546 5552 5557 5564 5571 5580 5590 5601 5613 5625 5637 5648 5659 5669 5677 5685 5692
5586 5576 5565 5554 5544 5534 5524 5515 5507 5500 5494 5489 5485 5483 5483 5485 5488 5493 5498 5503 5509 5515 5521 5527 5533 5538 5543 5548 5553 5559 5566 5574 5583 5593 5605 5617 5628 5640 5651 5661 5670 5678 5685
5585 5575 5565 5555 5545 5535 5526 5518 5511 5504 5498 5493 5490 5488 5488 5489 5491 5495 5499 5504 5509 5515 5520 5525 5530 5535 5540 5544 5549 5554 5560 5568 5576 5587 5598 5610 5622 5633 5644 5655 5664 5672 5679
5584 5575 5565 5556 5546 5537 5529 5521 5514 5508 5503 5498 5495 5493 5493 5493 5495 5497 5501 5505 5510 5514 5519 5524 5528 5532 5537 5540 5545 5549 5555 5562 5571 5581 5593 5605 5616 5627 5638 5648 5657 5665 5672
5584 5575 5566 5557 5548 5540 5532 5524 5518 5512 5507 5503 5500 5499 5498 5498 5499 5500 5503 5507 5510 5514 5518 5522 5526 5529 5533 5536 5540 5544 5550 5557 5567 5577 5589 5600 5612 5623 5633 5643 5651 5659 5666
5583 5576 5568 5559 5551 5543 5535 5528 5522 5516 5511 5507 5505 5503 5502 5501 5502 5504 5505 5508 5511 5515 5518 5521 5524 5527 5530 5533 5536 5541 5547 5554 5563 5574 5586 5597 5608 5619 5629 5638 5646 5654 5661
5583 5577 5569 5562 5554 5546 5538 5531 5525 5520 5515 5512 5509 5507 5506 5505 5505 5506 5508 5510 5513 5515 5517 5520 5522 5524 5527 5531 5535 5540 5546 5554 5563 5574 5585 5596 5606 5617 5626 5635 5642 5649 5656
5584 5578 5571 5564 5557 5550 5543 5536 5530 5524 5520 5516 5513 5511 5509 5508 5508 5509 5510 5512 5513 5515 5517 5519 5521 5523 5526 5530 5535 5540 5548 5556 5565 5575 5585 5596 5606 5616 5624 5632 5639 5645 5651
5584 5579 5573 5566 5560 5554 5547 5540 5535 5529 5524 5520 5517 5515 5513 5512 5511 5511 5512 5513 5515 5516 5518 5519 5521 5524 5527 5531 5537 5543 5551 5560 5569 5578 5588 5597 5606 5614 5622 5629 5635 5641 5646
5584 5579 5574 5569 5563 5557 5552 5546 5540 5535 5530 5526 5523 5521 5519 5517 5516 5516 5516 5517 5518 5519 5520 5522 5524 5527 5532 5537 5543 5550 5557 5565 5573 5582 5591 5599 5606 5614 5620 5626 5632 5638 5643
5584 5580 5576 5571 5566 5561 5556 5551 5546 5541 5537 5533 5530 5527 5525 5524 5523 5523 5523 5523 5523 5524 5526 5528 5531 5535 5539 5545 5550 5556 5563 5570 5578 5585 5593 5600 5607 5613 5619 5624 5630 5635 5639